Flag for Trinidad and Tobago Weather past 2 weeks in Port of Spain, Trinidad and Tobago

Now
84 °F

Passing clouds.


Feels Like: 90 °F
Forecast: N/A
Wind: 6 mph from Southeast

Location: Piarco International Airport - Trinidad

Current Time: Jul 31, 2014 at 6:45:20 PM

Latest Report: Jul 31, 2014 at 6:00 PM


Visibility: N/A

Pressure: 29.89 "Hg

Humidity: 66%

Dew point: 72 °F

Location of Port of SpainLocation

Historic Weather in Port of Spain — Graph

°F

Port of Spain temperature yesterday

Maximum temperature yesterday: 91 °F (at 1:00 PM)
Minimum temperature yesterday: 77 °F (at 3:00 AM)
Average temperature yesterday: 82 °F

Past Weeks' High & Low Weather Summary

 TemperatureHumidityPressure
High93 °F (Jul 31, 12:00 PM)100% (Jul 18, 2:00 PM)30.07 "Hg (Jul 18, 2:00 PM)
Low73 °F (Jul 18, 2:00 PM)52% (Jul 30, 1:00 PM)29.86 "Hg (Jul 25, 3:00 PM)
Average82 °F79%29.97 "Hg
* Reported Jul 16 5:00 PM — Jul 31 5:00 PM, Port of Spain, Weather by CustomWeather, © 2014

Note: Actual official high and low records may vary slightly from our data, if they occured in-between our weather recording intervals... More about our weather records

Advertising

Port of Spain weather history for previous 24 hours

 ConditionsComfort  
Time TempWeatherWind HumidityBarometerVisibility
5:00 PM
Jul 31
88 °FScattered clouds.9 mph62%29.89 "HgN/A
4:00 PM88 °FScattered showers. Partly sunny.6 mph59%29.89 "HgN/A
3:00 PM90 °FPartly sunny.12 mph59%29.92 "HgN/A
2:00 PM90 °FPartly sunny.12 mph59%29.92 "HgN/A
1:00 PM93 °FScattered clouds.8 mph53%29.92 "HgN/A
12:00 PM93 °FScattered clouds.8 mph56%29.95 "HgN/A
11:00 AM91 °FScattered clouds.6 mph52%29.98 "HgN/A
10:00 AM90 °FScattered clouds.7 mph59%29.98 "HgN/A
9:00 AM88 °FPassing clouds.7 mph66%29.98 "HgN/A
8:00 AM84 °FPassing clouds.No wind79%29.98 "HgN/A
7:00 AM81 °FPassing clouds.No wind79%29.95 "HgN/A
6:00 AM77 °FPassing clouds.No wind89%29.95 "HgN/A
5:00 AM77 °FPassing clouds.No wind89%29.98 "HgN/A
4:00 AM77 °FPassing clouds.No wind89%29.95 "HgN/A
3:00 AM77 °FSmoke.No wind89%29.95 "HgN/A
2:00 AM77 °FPassing clouds.3 mph94%29.95 "HgN/A
1:00 AM79 °FPassing clouds.No wind89%29.98 "HgN/A
12:00 AM79 °FPassing clouds.No wind89%29.98 "HgN/A
11:00 PM
Jul 30
79 °FPassing clouds.3 mph89%29.98 "HgN/A
10:00 PM79 °FPassing clouds.3 mph84%29.98 "HgN/A
9:00 PM79 °FPassing clouds.5 mph84%29.98 "HgN/A
8:00 PM81 °FPassing clouds.6 mph79%29.95 "HgN/A
7:00 PM82 °FPassing clouds.9 mph74%29.95 "HgN/A
6:00 PM82 °FPassing clouds.8 mph74%29.92 "HgN/A
Weather by CustomWeather, © 2014

See weather overviewHow to use our weather pages